Weather History for Calgary Springbank, AB

Change the Weather History Date:

Monday, October 15, 2012

  Actual Average Record
Temperature  
Mean Temperature 52 °F -  
Max Temperature 65 °F 41 °F 68 °F (2005)
Min Temperature 39 °F 20 °F 8 °F (2001)
Degree Days  
Heating Degree Days 13    
Growing Degree Days 2 (Base 50)    
Moisture  
Dew Point 31 °F    
Average Humidity 46    
Maximum Humidity 76    
Minimum Humidity 25    
Precipitation  
Precipitation 0.00 in - - ()
Sea Level Pressure  
Sea Level Pressure 29.66 in    
Wind  
Wind Speed 8 mph ()    
Max Wind Speed 15 mph    
Max Gust Speed 23 mph    
Visibility 15.6 miles    
Events      
Averages and records for this station are not official NWS values.
T = Trace of Precipitation, MM = Missing Value Source: Averaged Metar Reports

Daily Weather History Graph

Daily Weather History Graph

Search for Another Location

Airport:

Trip Planner

Search our weather history database for the weather conditions in past years. The results will help you decide how hot, cold, wet, or windy it might be!

Date:

Astronomy

Oct. 15, 2012 Rise Set
Actual Time 8:01 AM MDT 6:43 PM MDT
Civil Twilight 7:28 AM MDT 7:16 PM MDT
Nautical Twilight 6:50 AM MDT 7:55 PM MDT
Astronomical Twilight 6:11 AM MDT 8:33 PM MDT
Moon 8:24 AM MDT (10/15) 6:35 PM MDT (10/15)
Length of Visible Light 11h 48m
Length of Day
10h 41m
New Moon, 0% of the Moon is Illuminated
Oct 15
New Moon
Oct 21
First Quarter
Oct 29
Full
Nov 6
Last Quarter
Nov 13
New

Hourly Weather History & Observations

Time (MDT) Temp. Windchill Dew Point Humidity Pressure Visibility Wind Dir Wind Speed Gust Speed Precip Events Conditions
5:00 AM 51.8 °F - 32.0 °F 47% 29.64 in 15.0 mi North 6.9 mph - N/A   Scattered Clouds
6:00 AM 45 °F - 33 °F 51% 29.68 in 15 mi WNW 9.2 mph - -   Partly Cloudy
6:00 AM 44.6 °F 40.7 °F 33.8 °F 66% 29.68 in 15.0 mi WNW 6.9 mph - N/A   Scattered Clouds
7:00 AM 42.8 °F 40.1 °F 32.0 °F 66% 29.70 in 15.0 mi SW 4.6 mph - N/A   Scattered Clouds
8:00 AM 41.0 °F 39.0 °F 33.8 °F 76% 29.73 in 30.0 mi WSW 3.5 mph - N/A   Overcast
9:00 AM 46.4 °F 41.1 °F 35.6 °F 66% 29.73 in 30.0 mi WSW 11.5 mph - N/A   Overcast
11:00 AM 59.0 °F - 37.4 °F 45% 29.73 in 30.0 mi West 11.5 mph - N/A   Mostly Cloudy
12:00 PM 61 °F - 35 °F 25% 29.70 in 15 mi WSW 15.0 mph - -   Partly Cloudy
1:00 PM 62.6 °F - 33.8 °F 34% 29.69 in 30.0 mi West 9.2 mph - N/A   Scattered Clouds
2:00 PM 64.4 °F - 30.2 °F 28% 29.66 in 30.0 mi West 10.4 mph - N/A   Partly Cloudy
3:00 PM 64.4 °F - 30.2 °F 28% 29.66 in 30.0 mi West 12.7 mph 20.7 mph N/A   Partly Cloudy
4:00 PM 62.6 °F - 28.4 °F 27% 29.65 in 30.0 mi West 15.0 mph 23.0 mph N/A   Partly Cloudy
5:00 PM 59.0 °F - 28.4 °F 31% 29.66 in 30.0 mi West 9.2 mph 17.3 mph N/A   Scattered Clouds
6:00 PM 54 °F - 29 °F 25% 29.66 in 28 mi West 9.2 mph - -   Partly Cloudy
6:00 PM 53.6 °F - 28.4 °F 38% 29.66 in 30.0 mi West 9.2 mph - N/A   Scattered Clouds
7:00 PM 46.4 °F 42.9 °F 28.4 °F 50% 29.65 in 20.0 mi WSW 6.9 mph - N/A   Mostly Cloudy
8:00 PM 46.4 °F 42.9 °F 30.2 °F 53% 29.62 in 15.0 mi South 6.9 mph - N/A   Overcast
9:00 PM 41.0 °F 35.2 °F 30.2 °F 65% 29.57 in 15.0 mi SSE 9.2 mph - N/A   Mostly Cloudy
10:00 PM 42.8 °F 38.0 °F 28.4 °F 57% 29.52 in 15.0 mi South 8.1 mph - N/A   Mostly Cloudy